QPF
0.00 0.00 0.00 0.00 0.00 0.00 0.00 0.00 0.00 0.00 0.00 0.00 0.00 0.00 0.00 0.00 0.00 0.00 0.00 0.00 0.00 0.00 0.00 0.00 0.00 0.00 0.00 0.00 0.00 0.00 0.00 0.00 0.01 0.01 0.01 0.01 0.01 0.01 0.00 0.00 0.00 0.00 0.01 0.00
0.00 0.00 0.00 0.00 0.00 0.00 0.00 0.00 0.00 0.00 0.00 0.00 0.00 0.00 0.00 0.00 0.00 0.00 0.00 0.00 0.00 0.00 0.00 0.00 0.00 0.00 0.00 0.00 0.00 0.00 0.00 0.00 0.00 0.01 0.01 0.02 0.01 0.02 0.01 0.00 0.00 0.00 0.00 0.00
0.00 0.00 0.00 0.00 0.00 0.00 0.00 0.00 0.00 0.00 0.00 0.00 0.00 0.00 0.00 0.00 0.00 0.00 0.00 0.00 0.00 0.00 0.00 0.00 0.00 0.00 0.00 0.00 0.00 0.00 0.00 0.00 0.00 0.01 0.01 0.02 0.02 0.02 0.01 0.00 0.00 0.00 0.00 0.00
0.00 0.00 0.00 0.00 0.00 0.00 0.00 0.00 0.00 0.00 0.00 0.00 0.00 0.00 0.00 0.00 0.00 0.00 0.00 0.00 0.00 0.00 0.00 0.00 0.00 0.00 0.00 0.00 0.00 0.00 0.00 0.00 0.00 0.01 0.01 0.01 0.01 0.01 0.01 0.00 0.00 0.00 0.00 0.00
0.00 0.00 0.00 0.00 0.00 0.00 0.00 0.00 0.00 0.00 0.00 0.00 0.00 0.00 0.00 0.00 0.00 0.00 0.00 0.00 0.00 0.00 0.00 0.00 0.00 0.00 0.00 0.00 0.00 0.00 0.00 0.00 0.00 0.00 0.01 0.01 0.00 0.00 0.00 0.00 0.00 0.01 0.01 0.01
0.00 0.00 0.00 0.00 0.00 0.00 0.00 0.00 0.00 0.00 0.00 0.00 0.00 0.00 0.00 0.00 0.00 0.00 0.00 0.00 0.00 0.00 0.00 0.00 0.00 0.00 0.00 0.00 0.00 0.00 0.00 0.00 0.00 0.00 0.00 0.00 0.00 0.00 0.00 0.00 0.00 0.01 0.01 0.01
0.00 0.00 0.00 0.00 0.00 0.00 0.00 0.00 0.00 0.00 0.00 0.00 0.00 0.00 0.00 0.00 0.00 0.00 0.00 0.00 0.00 0.00 0.00 0.00 0.00 0.00 0.00 0.00 0.00 0.00 0.00 0.00 0.00 0.00 0.00 0.00 0.00 0.00 0.00 0.00 0.00 0.01 0.01 0.01
0.00 0.00 0.00 0.00 0.00 0.00 0.00 0.00 0.00 0.00 0.00 0.00 0.00 0.00 0.00 0.00 0.00 0.00 0.00 0.00 0.00 0.00 0.00 0.00 0.00 0.00 0.00 0.00 0.00 0.00 0.00 0.00 0.00 0.00 0.00 0.00 0.00 0.00 0.00 0.00 0.01 0.01 0.01 0.01
0.00 0.00 0.00 0.00 0.00 0.00 0.00 0.00 0.00 0.00 0.00 0.00 0.00 0.00 0.00 0.00 0.00 0.00 0.00 0.00 0.00 0.00 0.00 0.00 0.00 0.00 0.00 0.00 0.00 0.00 0.00 0.00 0.00 0.00 0.00 0.00 0.00 0.00 0.00 0.00 0.00 0.00 0.01 0.01
0.00 0.00 0.00 0.00 0.00 0.00 0.00 0.00 0.00 0.00 0.00 0.00 0.00 0.00 0.00 0.00 0.00 0.00 0.00 0.00 0.00 0.00 0.00 0.00 0.00 0.00 0.00 0.00 0.00 0.00 0.00 0.00 0.00 0.00 0.00 0.00 0.00 0.00 0.00 0.00 0.00 0.00 0.00 0.00
0.00 0.00 0.00 0.00 0.00 0.00 0.00 0.00 0.00 0.00 0.00 0.00 0.00 0.00 0.00 0.00 0.00 0.00 0.00 0.00 0.00 0.00 0.00 0.00 0.00 0.00 0.00 0.00 0.00 0.00 0.00 0.00 0.00 0.00 0.00 0.00 0.00 0.00 0.00 0.00 0.00 0.00 0.00 0.00
0.00 0.00 0.00 0.00 0.00 0.00 0.00 0.00 0.00 0.00 0.00 0.00 0.00 0.00 0.00 0.00 0.00 0.00 0.00 0.00 0.00 0.00 0.00 0.00 0.00 0.00 0.00 0.00 0.00 0.00 0.00 0.00 0.00 0.00 0.00 0.00 0.00 0.00 0.00 0.00 0.00 0.00 0.00 0.00
0.00 0.00 0.00 0.00 0.00 0.00 0.00 0.00 0.00 0.00 0.00 0.00 0.00 0.00 0.00 0.00 0.00 0.00 0.00 0.00 0.00 0.00 0.00 0.00 0.00 0.00 0.00 0.00 0.00 0.00 0.00 0.00 0.00 0.00 0.00 0.00 0.00 0.00 0.00 0.00 0.00 0.00 0.00 0.00
0.00 0.00 0.00 0.00 0.00 0.00 0.00 0.00 0.00 0.00 0.00 0.00 0.00 0.00 0.00 0.00 0.00 0.00 0.00 0.00 0.00 0.00 0.00 0.00 0.00 0.00 0.00 0.00 0.00 0.00 0.00 0.00 0.00 0.00 0.00 0.00 0.00 0.00 0.00 0.00 0.00 0.00 0.00 0.00
0.00 0.00 0.00 0.00 0.00 0.00 0.00 0.00 0.00 0.00 0.00 0.00 0.00 0.00 0.00 0.00 0.00 0.00 0.00 0.00 0.00 0.00 0.00 0.00 0.00 0.00 0.00 0.00 0.00 0.00 0.00 0.00 0.00 0.00 0.00 0.00 0.00 0.00 0.00 0.00 0.00 0.00 0.00 0.00
0.00 0.00 0.00 0.00 0.00 0.00 0.00 0.00 0.00 0.00 0.00 0.00 0.00 0.00 0.00 0.00 0.00 0.00 0.00 0.00 0.00 0.00 0.00 0.00 0.00 0.00 0.00 0.00 0.00 0.00 0.00 0.00 0.00 0.00 0.00 0.00 0.00 0.00 0.00 0.00 0.00 0.00 0.00 0.00
0.00 0.00 0.00 0.00 0.00 0.00 0.00 0.00 0.00 0.00 0.00 0.00 0.00 0.00 0.00 0.00 0.00 0.00 0.00 0.00 0.00 0.00 0.00 0.00 0.00 0.00 0.00 0.00 0.00 0.00 0.00 0.00 0.00 0.00 0.00 0.00 0.00 0.00 0.00 0.00 0.00 0.00 0.00 0.00
0.00 0.00 0.00 0.00 0.00 0.00 0.00 0.00 0.00 0.00 0.00 0.00 0.00 0.00 0.00 0.00 0.00 0.00 0.00 0.00 0.00 0.00 0.00 0.00 0.00 0.00 0.00 0.00 0.00 0.00 0.00 0.00 0.00 0.00 0.00 0.00 0.00 0.00 0.00 0.00 0.00 0.00 0.00 0.00
0.00 0.00 0.00 0.00 0.00 0.00 0.00 0.00 0.00 0.00 0.00 0.00 0.00 0.00 0.00 0.00 0.00 0.00 0.00 0.00 0.00 0.00 0.00 0.00 0.00 0.00 0.00 0.00 0.00 0.00 0.00 0.00 0.00 0.00 0.00 0.00 0.00 0.00 0.00 0.00 0.00 0.00 0.00 0.00
0.00 0.00 0.00 0.00 0.00 0.00 0.00 0.00 0.00 0.00 0.00 0.00 0.00 0.00 0.00 0.00 0.00 0.00 0.00 0.00 0.00 0.00 0.00 0.00 0.00 0.00 0.00 0.00 0.00 0.00 0.00 0.00 0.00 0.00 0.00 0.00 0.00 0.00 0.00 0.00 0.00 0.00 0.00 0.00
0.00 0.00 0.00 0.00 0.00 0.00 0.00 0.00 0.00 0.00 0.00 0.00 0.00 0.00 0.00 0.00 0.00 0.00 0.00 0.00 0.00 0.00 0.00 0.00 0.00 0.00 0.00 0.00 0.00 0.00 0.00 0.00 0.00 0.00 0.00 0.00 0.00 0.00 0.00 0.00 0.00 0.00 0.00 0.00
0.00 0.00 0.00 0.00 0.00 0.00 0.00 0.00 0.00 0.00 0.00 0.00 0.00 0.00 0.00 0.00 0.00 0.00 0.00 0.00 0.00 0.00 0.00 0.00 0.00 0.00 0.00 0.00 0.00 0.00 0.00 0.00 0.00 0.00 0.00 0.00 0.00 0.00 0.00 0.00 0.00 0.00 0.00 0.00
0.00 0.00 0.00 0.00 0.00 0.00 0.00 0.00 0.00 0.00 0.00 0.00 0.00 0.00 0.00 0.00 0.00 0.00 0.00 0.00 0.00 0.00 0.00 0.00 0.00 0.00 0.00 0.00 0.00 0.00 0.00 0.00 0.00 0.00 0.00 0.00 0.00 0.00 0.00 0.00 0.00 0.00 0.00 0.00
0.00 0.00 0.00 0.00 0.00 0.00 0.00 0.00 0.00 0.00 0.00 0.00 0.00 0.00 0.00 0.00 0.00 0.00 0.00 0.00 0.00 0.00 0.00 0.00 0.00 0.00 0.00 0.00 0.00 0.00 0.00 0.00 0.00 0.00 0.00 0.00 0.00 0.00 0.00 0.00 0.00 0.00 0.00 0.00
0.00 0.00 0.00 0.00 0.00 0.00 0.00 0.00 0.00 0.00 0.00 0.00 0.00 0.00 0.00 0.00 0.00 0.00 0.00 0.00 0.00 0.00 0.00 0.00 0.00 0.00 0.00 0.00 0.00 0.00 0.00 0.00 0.00 0.00 0.00 0.00 0.00 0.00 0.00 0.00 0.00 0.00 0.00 0.00
0.00 0.00 0.00 0.00 0.00 0.00 0.00 0.00 0.00 0.00 0.00 0.00 0.00 0.00 0.00 0.00 0.00 0.00 0.00 0.00 0.00 0.00 0.00 0.00 0.00 0.00 0.00 0.00 0.00 0.00 0.00 0.00 0.00 0.00 0.00 0.00 0.00 0.00 0.00 0.00 0.00 0.00 0.00 0.00
0.00 0.00 0.00 0.00 0.00 0.00 0.00 0.00 0.00 0.00 0.00 0.00 0.00 0.00 0.00 0.00 0.00 0.00 0.00 0.00 0.00 0.00 0.00 0.00 0.00 0.00 0.00 0.00 0.00 0.00 0.00 0.00 0.00 0.00 0.00 0.00 0.00 0.00 0.00 0.00 0.00 0.00 0.00 0.00
MSLP
1017.80 1017.93 1018.02 1018.09 1018.15 1018.20 1018.25 1018.29 1018.33 1018.37 1018.42 1018.46 1018.50 1018.53 1018.53 1018.51 1018.45 1018.33 1018.17 1017.95 1017.70 1017.41 1017.12 1016.83 1016.58 1016.36 1016.20 1016.08 1015.99 1015.93 1015.86 1015.78 1015.68 1015.54 1015.38 1015.20 1015.01 1014.84 1014.69 1014.57 1014.46 1014.37 1014.27 1014.15
1017.76 1017.81 1017.80 1017.74 1017.65 1017.56 1017.48 1017.43 1017.42 1017.45 1017.52 1017.62 1017.75 1017.87 1017.97 1018.02 1018.02 1017.94 1017.80 1017.58 1017.31 1017.02 1016.72 1016.45 1016.23 1016.07 1015.97 1015.93 1015.94 1015.97 1015.99 1015.99 1015.96 1015.89 1015.79 1015.66 1015.51 1015.37 1015.25 1015.13 1015.03 1014.93 1014.81 1014.66
1017.77 1017.75 1017.63 1017.44 1017.21 1016.97 1016.77 1016.61 1016.54 1016.55 1016.64 1016.79 1016.99 1017.20 1017.39 1017.52 1017.58 1017.54 1017.42 1017.21 1016.94 1016.64 1016.35 1016.10 1015.91 1015.79 1015.76 1015.79 1015.87 1015.97 1016.07 1016.15 1016.18 1016.17 1016.12 1016.03 1015.93 1015.82 1015.71 1015.61 1015.51 1015.40 1015.26 1015.07
1017.81 1017.73 1017.51 1017.21 1016.85 1016.48 1016.16 1015.91 1015.78 1015.76 1015.85 1016.05 1016.30 1016.59 1016.85 1017.06 1017.17 1017.19 1017.09 1016.90 1016.65 1016.36 1016.08 1015.84 1015.68 1015.60 1015.60 1015.68 1015.81 1015.97 1016.12 1016.24 1016.32 1016.35 1016.33 1016.29 1016.21 1016.13 1016.05 1015.97 1015.88 1015.76 1015.61 1015.40
1017.82 1017.66 1017.37 1016.97 1016.51 1016.05 1015.64 1015.33 1015.14 1015.10 1015.20 1015.42 1015.72 1016.06 1016.39 1016.66 1016.83 1016.89 1016.84 1016.69 1016.46 1016.19 1015.94 1015.72 1015.58 1015.52 1015.55 1015.65 1015.81 1015.98 1016.15 1016.29 1016.39 1016.44 1016.45 1016.42 1016.38 1016.33 1016.27 1016.21 1016.13 1016.03 1015.88 1015.67
1017.66 1017.44 1017.09 1016.63 1016.12 1015.61 1015.15 1014.80 1014.59 1014.54 1014.65 1014.89 1015.23 1015.61 1015.99 1016.31 1016.54 1016.65 1016.65 1016.55 1016.36 1016.14 1015.92 1015.73 1015.61 1015.57 1015.61 1015.72 1015.87 1016.04 1016.20 1016.34 1016.43 1016.49 1016.50 1016.49 1016.46 1016.43 1016.40 1016.37 1016.32 1016.23 1016.10 1015.91
1017.22 1016.95 1016.56 1016.08 1015.56 1015.04 1014.59 1014.25 1014.05 1014.02 1014.14 1014.40 1014.77 1015.19 1015.60 1015.97 1016.25 1016.42 1016.48 1016.43 1016.31 1016.14 1015.97 1015.82 1015.73 1015.71 1015.75 1015.85 1015.99 1016.14 1016.28 1016.40 1016.48 1016.52 1016.53 1016.53 1016.52 1016.51 1016.50 1016.49 1016.47 1016.42 1016.32 1016.16
1016.43 1016.12 1015.73 1015.26 1014.77 1014.29 1013.89 1013.60 1013.45 1013.45 1013.61 1013.90 1014.29 1014.74 1015.18 1015.59 1015.91 1016.14 1016.26 1016.28 1016.22 1016.12 1016.00 1015.91 1015.85 1015.85 1015.90 1015.99 1016.12 1016.25 1016.37 1016.47 1016.54 1016.57 1016.59 1016.59 1016.60 1016.60 1016.62 1016.64 1016.64 1016.62 1016.55 1016.42
1015.32 1014.99 1014.60 1014.18 1013.75 1013.36 1013.04 1012.83 1012.76 1012.82 1013.03 1013.35 1013.77 1014.23 1014.70 1015.13 1015.49 1015.76 1015.94 1016.02 1016.03 1016.00 1015.94 1015.90 1015.88 1015.91 1015.97 1016.07 1016.19 1016.31 1016.43 1016.52 1016.59 1016.64 1016.67 1016.69 1016.72 1016.75 1016.79 1016.83 1016.85 1016.85 1016.81 1016.70
1014.03 1013.69 1013.32 1012.95 1012.61 1012.32 1012.10 1011.99 1012.00 1012.14 1012.40 1012.75 1013.19 1013.67 1014.15 1014.59 1014.98 1015.28 1015.50 1015.64 1015.71 1015.73 1015.74 1015.74 1015.76 1015.81 1015.90 1016.01 1016.14 1016.28 1016.41 1016.52 1016.61 1016.69 1016.75 1016.81 1016.87 1016.93 1016.99 1017.05 1017.09 1017.10 1017.07 1016.98
1012.78 1012.43 1012.09 1011.77 1011.51 1011.31 1011.19 1011.18 1011.27 1011.47 1011.77 1012.15 1012.60 1013.08 1013.56 1014.01 1014.40 1014.72 1014.97 1015.15 1015.26 1015.33 1015.37 1015.41 1015.47 1015.55 1015.65 1015.78 1015.93 1016.09 1016.25 1016.41 1016.55 1016.67 1016.79 1016.90 1017.00 1017.10 1017.18 1017.26 1017.31 1017.33 1017.30 1017.22
1011.83 1011.46 1011.14 1010.86 1010.65 1010.51 1010.46 1010.51 1010.65 1010.89 1011.21 1011.61 1012.05 1012.52 1012.98 1013.42 1013.81 1014.14 1014.40 1014.59 1014.73 1014.82 1014.90 1014.96 1015.04 1015.13 1015.25 1015.40 1015.57 1015.76 1015.95 1016.15 1016.35 1016.53 1016.71 1016.88 1017.03 1017.17 1017.29 1017.39 1017.45 1017.47 1017.45 1017.37
1011.36 1010.97 1010.64 1010.36 1010.16 1010.04 1010.01 1010.07 1010.22 1010.46 1010.77 1011.15 1011.57 1012.01 1012.45 1012.87 1013.24 1013.57 1013.83 1014.04 1014.19 1014.30 1014.38 1014.46 1014.54 1014.63 1014.76 1014.91 1015.09 1015.30 1015.53 1015.77 1016.01 1016.25 1016.49 1016.71 1016.91 1017.09 1017.24 1017.35 1017.43 1017.47 1017.45 1017.39
1011.47 1011.05 1010.68 1010.36 1010.12 1009.95 1009.88 1009.89 1010.00 1010.19 1010.45 1010.78 1011.15 1011.55 1011.96 1012.35 1012.72 1013.03 1013.30 1013.51 1013.68 1013.80 1013.89 1013.97 1014.05 1014.15 1014.26 1014.41 1014.59 1014.80 1015.03 1015.29 1015.56 1015.83 1016.10 1016.36 1016.59 1016.80 1016.98 1017.12 1017.22 1017.27 1017.28 1017.25
1012.10 1011.64 1011.20 1010.80 1010.46 1010.20 1010.02 1009.94 1009.94 1010.03 1010.21 1010.45 1010.76 1011.10 1011.47 1011.83 1012.19 1012.51 1012.79 1013.02 1013.21 1013.35 1013.46 1013.56 1013.64 1013.73 1013.84 1013.97 1014.13 1014.32 1014.54 1014.79 1015.05 1015.32 1015.59 1015.86 1016.10 1016.32 1016.51 1016.67 1016.79 1016.88 1016.93 1016.94
1013.11 1012.58 1012.05 1011.54 1011.07 1010.66 1010.33 1010.10 1009.95 1009.91 1009.96 1010.09 1010.31 1010.58 1010.90 1011.24 1011.58 1011.92 1012.23 1012.50 1012.73 1012.92 1013.07 1013.20 1013.31 1013.41 1013.52 1013.63 1013.77 1013.93 1014.12 1014.33 1014.55 1014.79 1015.03 1015.26 1015.49 1015.70 1015.89 1016.05 1016.20 1016.31 1016.41 1016.48
1014.25 1013.65 1013.02 1012.38 1011.76 1011.19 1010.68 1010.26 1009.94 1009.73 1009.63 1009.63 1009.74 1009.93 1010.19 1010.50 1010.84 1011.19 1011.54 1011.86 1012.16 1012.43 1012.65 1012.85 1013.01 1013.15 1013.28 1013.40 1013.53 1013.66 1013.80 1013.96 1014.12 1014.29 1014.47 1014.65 1014.83 1015.01 1015.17 1015.33 1015.49 1015.64 1015.78 1015.91
1015.30 1014.65 1013.92 1013.16 1012.39 1011.65 1010.96 1010.36 1009.86 1009.47 1009.20 1009.06 1009.04 1009.12 1009.31 1009.57 1009.90 1010.27 1010.66 1011.05 1011.43 1011.79 1012.11 1012.40 1012.66 1012.87 1013.06 1013.21 1013.35 1013.47 1013.58 1013.69 1013.79 1013.89 1013.99 1014.10 1014.21 1014.33 1014.46 1014.60 1014.76 1014.92 1015.09 1015.28
1016.08 1015.39 1014.60 1013.74 1012.86 1011.98 1011.14 1010.38 1009.71 1009.15 1008.72 1008.42 1008.25 1008.23 1008.32 1008.51 1008.80 1009.16 1009.58 1010.02 1010.48 1010.94 1011.37 1011.78 1012.15 1012.47 1012.74 1012.97 1013.15 1013.29 1013.40 1013.48 1013.53 1013.58 1013.61 1013.65 1013.69 1013.75 1013.83 1013.94 1014.07 1014.23 1014.42 1014.63
1016.54 1015.83 1015.02 1014.12 1013.17 1012.21 1011.28 1010.39 1009.59 1008.89 1008.31 1007.85 1007.54 1007.37 1007.34 1007.44 1007.65 1007.97 1008.37 1008.83 1009.34 1009.87 1010.41 1010.93 1011.41 1011.86 1012.25 1012.57 1012.83 1013.03 1013.17 1013.26 1013.30 1013.31 1013.30 1013.29 1013.28 1013.29 1013.33 1013.39 1013.49 1013.64 1013.81 1014.02
1016.70 1016.03 1015.24 1014.35 1013.41 1012.44 1011.47 1010.52 1009.64 1008.84 1008.13 1007.54 1007.09 1006.77 1006.58 1006.54 1006.63 1006.85 1007.18 1007.61 1008.12 1008.68 1009.27 1009.87 1010.45 1011.01 1011.51 1011.94 1012.31 1012.59 1012.79 1012.93 1013.00 1013.02 1013.01 1012.98 1012.95 1012.92 1012.92 1012.96 1013.03 1013.14 1013.29 1013.47
1016.66 1016.06 1015.35 1014.55 1013.67 1012.76 1011.82 1010.89 1009.98 1009.13 1008.34 1007.64 1007.05 1006.57 1006.23 1006.01 1005.94 1006.01 1006.21 1006.54 1006.97 1007.49 1008.08 1008.70 1009.34 1009.97 1010.55 1011.08 1011.54 1011.92 1012.21 1012.42 1012.56 1012.63 1012.65 1012.64 1012.62 1012.59 1012.58 1012.60 1012.64 1012.72 1012.83 1012.97
1016.54 1016.05 1015.45 1014.78 1014.04 1013.24 1012.41 1011.55 1010.69 1009.84 1009.02 1008.25 1007.54 1006.93 1006.41 1006.02 1005.75 1005.63 1005.65 1005.81 1006.10 1006.51 1007.01 1007.58 1008.20 1008.84 1009.46 1010.04 1010.57 1011.03 1011.41 1011.70 1011.92 1012.06 1012.15 1012.20 1012.22 1012.22 1012.23 1012.25 1012.28 1012.34 1012.41 1012.51
1016.40 1016.03 1015.59 1015.08 1014.51 1013.88 1013.20 1012.47 1011.71 1010.93 1010.13 1009.33 1008.56 1007.84 1007.18 1006.61 1006.14 1005.81 1005.61 1005.56 1005.66 1005.89 1006.23 1006.68 1007.20 1007.77 1008.36 1008.94 1009.49 1009.99 1010.43 1010.79 1011.09 1011.32 1011.48 1011.61 1011.69 1011.75 1011.80 1011.85 1011.89 1011.94 1012.00 1012.06
1016.26 1016.02 1015.74 1015.41 1015.02 1014.58 1014.09 1013.53 1012.91 1012.24 1011.52 1010.76 1009.97 1009.19 1008.43 1007.73 1007.09 1006.56 1006.15 1005.87 1005.74 1005.75 1005.89 1006.15 1006.51 1006.94 1007.42 1007.93 1008.44 1008.92 1009.37 1009.77 1010.12 1010.41 1010.66 1010.86 1011.02 1011.15 1011.26 1011.35 1011.42 1011.49 1011.54 1011.59
1016.09 1015.96 1015.81 1015.65 1015.44 1015.20 1014.89 1014.52 1014.08 1013.56 1012.95 1012.28 1011.55 1010.77 1009.98 1009.20 1008.45 1007.77 1007.18 1006.71 1006.35 1006.13 1006.04 1006.08 1006.23 1006.47 1006.79 1007.16 1007.56 1007.97 1008.38 1008.77 1009.13 1009.46 1009.75 1010.01 1010.24 1010.44 1010.61 1010.75 1010.87 1010.97 1011.04 1011.10
1015.81 1015.76 1015.72 1015.68 1015.63 1015.54 1015.42 1015.23 1014.96 1014.61 1014.17 1013.63 1013.00 1012.30 1011.55 1010.77 1009.99 1009.24 1008.53 1007.91 1007.38 1006.96 1006.66 1006.48 1006.40 1006.43 1006.55 1006.74 1006.99 1007.28 1007.59 1007.91 1008.24 1008.56 1008.87 1009.16 1009.43 1009.68 1009.90 1010.09 1010.26 1010.39 1010.50 1010.58
Thickness
5741 5739 5735 5730 5725 5720 5710 5710 5704 5706 5702 5705 5703 5697 5694 5690 5687 5684 5682 5681 5679 5677 5677 5676 5674 5672 5668 5664 5661 5658 5654 5650 5647 5646 5644 5642 5640 5638 5637 5636 5635 5634 5634 5633
5743 5745 5739 5734 5736 5731 5723 5719 5714 5711 5708 5719 5714 5706 5700 5696 5692 5688 5686 5685 5683 5682 5681 5680 5678 5676 5672 5668 5664 5661 5657 5652 5649 5647 5644 5642 5640 5637 5636 5633 5631 5629 5628 5627
5743 5751 5741 5736 5750 5742 5734 5732 5724 5713 5720 5723 5713 5708 5705 5702 5698 5694 5692 5689 5687 5685 5684 5684 5684 5681 5677 5672 5669 5664 5659 5654 5650 5647 5643 5641 5639 5636 5634 5631 5628 5625 5623 5622
5742 5746 5728 5748 5765 5759 5746 5741 5739 5732 5729 5725 5719 5716 5712 5708 5703 5699 5697 5694 5691 5689 5689 5689 5689 5686 5682 5678 5672 5666 5661 5656 5652 5647 5643 5640 5637 5634 5631 5628 5625 5622 5619 5617
5741 5735 5744 5753 5760 5756 5743 5739 5751 5741 5736 5731 5728 5720 5714 5716 5712 5706 5703 5699 5696 5694 5694 5693 5689 5688 5686 5681 5675 5668 5661 5656 5652 5648 5643 5639 5635 5632 5629 5626 5623 5620 5616 5613
5736 5728 5736 5750 5763 5766 5750 5738 5763 5755 5743 5736 5726 5708 5715 5724 5718 5712 5708 5704 5700 5698 5697 5693 5690 5690 5687 5683 5676 5668 5663 5658 5654 5649 5644 5638 5634 5631 5628 5624 5621 5618 5614 5610
5725 5727 5751 5761 5765 5759 5732 5740 5763 5761 5752 5742 5730 5724 5730 5728 5721 5716 5711 5707 5704 5701 5698 5695 5693 5691 5689 5683 5676 5670 5665 5660 5655 5651 5646 5640 5635 5631 5628 5624 5620 5617 5613 5609
5739 5732 5742 5762 5759 5750 5754 5767 5766 5763 5758 5750 5743 5738 5732 5727 5722 5717 5713 5709 5706 5702 5700 5699 5697 5693 5689 5682 5679 5674 5668 5662 5657 5652 5648 5643 5637 5632 5629 5624 5620 5616 5612 5607
5754 5754 5766 5768 5768 5772 5774 5768 5770 5766 5762 5756 5748 5741 5734 5728 5723 5720 5716 5713 5710 5706 5702 5702 5701 5695 5689 5686 5683 5678 5672 5666 5661 5656 5650 5645 5639 5634 5629 5625 5620 5615 5610 5605
5755 5765 5776 5779 5777 5777 5776 5771 5772 5770 5765 5759 5750 5745 5738 5732 5726 5722 5719 5717 5713 5708 5705 5705 5703 5699 5694 5691 5687 5682 5676 5671 5666 5660 5655 5649 5642 5637 5630 5623 5618 5614 5609 5604
5752 5764 5774 5780 5780 5779 5777 5775 5772 5770 5767 5761 5754 5747 5742 5736 5731 5726 5723 5720 5716 5710 5708 5706 5706 5703 5699 5695 5691 5685 5680 5675 5670 5665 5659 5653 5646 5638 5632 5624 5619 5613 5608 5604
5749 5769 5769 5773 5782 5781 5775 5771 5770 5766 5763 5761 5756 5750 5745 5740 5736 5731 5726 5723 5718 5714 5711 5709 5709 5706 5703 5698 5693 5689 5684 5680 5674 5669 5663 5657 5650 5641 5634 5629 5623 5618 5613 5608
5771 5775 5773 5773 5776 5777 5773 5772 5770 5767 5763 5759 5756 5752 5747 5742 5739 5735 5730 5726 5721 5718 5715 5713 5710 5707 5705 5701 5696 5692 5688 5684 5679 5673 5668 5662 5657 5650 5641 5633 5628 5623 5619 5615
5771 5769 5764 5766 5768 5773 5772 5771 5769 5766 5764 5761 5757 5753 5748 5744 5740 5736 5732 5729 5726 5722 5718 5714 5710 5708 5707 5703 5698 5694 5691 5686 5682 5676 5671 5667 5663 5658 5652 5645 5637 5631 5626 5622
5754 5760 5761 5763 5764 5766 5767 5765 5761 5759 5758 5757 5756 5751 5747 5742 5739 5737 5735 5732 5728 5723 5719 5715 5711 5709 5708 5704 5699 5695 5693 5689 5684 5681 5677 5672 5668 5663 5659 5655 5649 5643 5636 5629
5732 5742 5747 5748 5749 5753 5756 5755 5753 5753 5754 5754 5752 5749 5747 5744 5740 5737 5735 5732 5726 5721 5719 5716 5712 5711 5709 5704 5699 5695 5693 5690 5687 5683 5680 5677 5673 5668 5664 5661 5657 5652 5646 5640
5707 5711 5715 5721 5729 5737 5742 5747 5749 5750 5752 5751 5750 5749 5746 5742 5738 5735 5733 5732 5728 5724 5721 5717 5714 5713 5710 5705 5700 5696 5693 5691 5687 5684 5681 5680 5678 5674 5671 5667 5662 5659 5653 5648
5690 5693 5698 5703 5710 5718 5726 5735 5741 5745 5747 5750 5750 5747 5743 5739 5735 5733 5731 5730 5727 5723 5721 5719 5716 5713 5709 5705 5700 5697 5695 5693 5688 5685 5683 5682 5681 5679 5676 5672 5669 5664 5659 5653
5674 5677 5682 5687 5694 5702 5710 5719 5727 5735 5741 5744 5745 5744 5742 5740 5737 5733 5730 5726 5723 5719 5719 5718 5716 5712 5708 5704 5701 5696 5693 5693 5691 5689 5686 5685 5682 5680 5678 5675 5673 5670 5667 5661
5655 5659 5663 5669 5677 5684 5693 5703 5712 5721 5729 5735 5738 5738 5738 5738 5735 5731 5727 5725 5725 5722 5720 5718 5714 5709 5706 5704 5699 5695 5692 5690 5690 5689 5687 5685 5682 5680 5679 5678 5676 5674 5672 5669
5634 5639 5644 5650 5656 5664 5673 5684 5694 5703 5713 5721 5725 5728 5731 5732 5730 5727 5723 5721 5724 5722 5719 5716 5712 5708 5705 5702 5697 5694 5691 5689 5688 5687 5685 5684 5683 5682 5681 5680 5679 5677 5675 5673
5612 5617 5622 5627 5634 5642 5651 5660 5670 5680 5691 5701 5710 5716 5719 5720 5721 5721 5722 5720 5720 5717 5715 5712 5709 5706 5703 5699 5694 5691 5689 5687 5686 5685 5683 5682 5681 5680 5680 5680 5680 5679 5677 5676
5589 5593 5598 5603 5610 5617 5625 5634 5643 5653 5664 5675 5686 5695 5701 5706 5709 5708 5709 5715 5714 5711 5709 5707 5704 5701 5697 5694 5691 5688 5686 5685 5684 5683 5682 5681 5680 5679 5678 5678 5678 5678 5677 5676
5566 5569 5573 5578 5584 5590 5596 5604 5613 5624 5634 5647 5658 5669 5678 5685 5692 5699 5704 5706 5706 5704 5701 5700 5697 5694 5690 5688 5686 5685 5683 5682 5681 5680 5680 5679 5678 5677 5677 5676 5675 5675 5675 5674
5544 5545 5548 5551 5555 5561 5568 5575 5584 5592 5602 5612 5623 5637 5649 5659 5667 5676 5685 5691 5693 5693 5691 5691 5689 5686 5682 5681 5680 5679 5679 5678 5678 5677 5676 5674 5674 5674 5673 5672 5672 5671 5670 5670
5524 5524 5525 5526 5529 5533 5539 5545 5552 5559 5569 5576 5586 5601 5615 5628 5639 5649 5659 5668 5675 5676 5677 5678 5676 5674 5674 5673 5673 5673 5673 5673 5672 5671 5671 5670 5669 5669 5668 5667 5668 5667 5666 5665
5506 5506 5505 5506 5508 5509 5512 5516 5522 5529 5535 5540 5551 5564 5578 5592 5604 5615 5628 5638 5646 5652 5656 5659 5661 5661 5662 5663 5664 5665 5666 5666 5666 5665 5664 5663 5662 5662 5662 5662 5662 5661 5660 5660